This is the latest recevied weather packets stored in our database for station/object W4KAB. If no packets are shown the sender has not sent any weather packets the latest 10 day(s).
| Time | Temp. | Humidity | Pressure | Rain* | Wind** | Luminosity | Snow |
|---|---|---|---|---|---|---|---|
| 1777373292 | 11.11° C | 98% | 1023.9 hPa | 7.87 mm | - | 0 W/m² | - |
| 1777372683 | 11.11° C | 97% | 1024.2 hPa | 1.78 mm | - | 0 W/m² | - |
| 1777372381 | 11.67° C | 97% | 1024 hPa | 3.05 mm | - | 0 W/m² | - |
| 1777372080 | 11.67° C | 95% | 1023.7 hPa | 3.05 mm | - | 0 W/m² | - |
| 1777371776 | 11.67° C | 93% | 1023.6 hPa | 10.67 mm | - | 0 W/m² | - |
| 1777371473 | 11.67° C | 92% | 1023.7 hPa | 11.94 mm | - | 0 W/m² | - |
| 1777371169 | 11.67° C | 88% | 1023.7 hPa | 6.1 mm | - | 0 W/m² | - |
| 1777370865 | 12.22° C | 86% | 1023.6 hPa | 0 mm | - | 0 W/m² | - |
| 1777370562 | 12.22° C | 84% | 1023.8 hPa | 0 mm | - | 0 W/m² | - |
| 1777370258 | 12.22° C | 84% | 1024.4 hPa | 0 mm | - | 0 W/m² | - |
| 1777369046 | 12.78° C | 85% | 1023.8 hPa | 0 mm | - | 0 W/m² | - |
| 1777368744 | 12.78° C | 85% | 1023.2 hPa | 0 mm | - | 0 W/m² | - |
| 1777368439 | 12.78° C | 85% | 1022.5 hPa | 0 mm | - | 0 W/m² | - |
| 1777367834 | 12.78° C | 84% | 1021.9 hPa | 0 mm | - | 0 W/m² | - |
| 1777366314 | 12.78° C | 81% | 1021.8 hPa | 0 mm | - | 0 W/m² | - |
| 1777365402 | 12.78° C | 81% | 1021.9 hPa | 0 mm | - | 0 W/m² | - |
| 1777365100 | 12.78° C | 82% | 1021.7 hPa | 0 mm | - | 0 W/m² | - |
| 1777364795 | 13.33° C | 80% | 1021.6 hPa | 0 mm | - | 0 W/m² | - |
| 1777364491 | 12.78° C | 81% | 1021.7 hPa | 0 mm | - | 0 W/m² | - |
| 1777364187 | 12.78° C | 80% | 1021.9 hPa | 0 mm | - | 0 W/m² | - |
| 1777363884 | 12.78° C | 79% | 1021.8 hPa | 0 mm | - | 0 W/m² | - |
| 1777363580 | 12.78° C | 79% | 1022 hPa | 0 mm | - | 0 W/m² | - |
| 1777363277 | 12.78° C | 79% | 1022 hPa | 0 mm | - | 0 W/m² | - |
| 1777362974 | 12.78° C | 79% | 1021.7 hPa | 0 mm | - | 0 W/m² | - |
| 1777362671 | 12.78° C | 79% | 1021.6 hPa | 0 mm | - | 0 W/m² | - |
* Rain latest hour (hover to see other rain measurements)
** Current wind speed in m/s (hover to see current wind gust speed)